Temperature
-3 -4 -4 -3 -3 -3 -3 -3 -3 -3 -3 -3 -3 -3 -3 -2 -2 -2 -1 -1 -1 -1 -0 -0 -0 0 0 0 0 0 0 1 1 1 1 2 2 2 3 3 3 4 4
-4 -4 -4 -4 -4 -4 -4 -4 -4 -4 -4 -4 -4 -4 -3 -3 -3 -2 -2 -2 -2 -1 -1 -1 -1 -1 -0 -0 -0 -0 -0 0 0 0 1 1 1 2 2 2 3 3 3
-5 -5 -5 -5 -5 -4 -4 -4 -4 -4 -4 -4 -4 -4 -4 -4 -3 -3 -3 -3 -2 -2 -2 -2 -1 -1 -1 -1 -1 -1 -1 -0 -1 -0 -0 0 1 1 1 2 2 2 2
-5 -5 -5 -5 -5 -5 -5 -5 -5 -5 -5 -5 -5 -5 -5 -4 -4 -4 -4 -3 -3 -2 -2 -2 -2 -2 -1 -1 -1 -1 -1 -1 -1 -1 -1 -0 -0 0 1 1 1 2 2
-5 -6 -6 -6 -6 -6 -5 -5 -5 -6 -6 -6 -5 -5 -5 -5 -4 -4 -4 -4 -3 -3 -2 -2 -2 -2 -2 -2 -2 -1 -1 -1 -1 -1 -1 -1 -1 -0 0 0 0 1 1
-6 -6 -6 -6 -6 -6 -6 -6 -6 -6 -6 -6 -6 -6 -5 -5 -5 -4 -4 -4 -4 -3 -3 -3 -3 -2 -2 -2 -2 -2 -2 -2 -2 -2 -2 -1 -1 -1 -0 -0 -0 -0 -0
-6 -7 -7 -7 -7 -7 -7 -7 -7 -7 -7 -7 -6 -6 -6 -5 -5 -5 -5 -5 -4 -4 -3 -3 -3 -3 -3 -2 -2 -2 -2 -2 -2 -2 -2 -1 -1 -1 -1 -1 -1 -0 -0
-7 -7 -7 -7 -7 -7 -7 -7 -7 -7 -7 -7 -7 -7 -6 -6 -6 -6 -5 -5 -5 -4 -4 -4 -3 -3 -3 -3 -3 -2 -2 -2 -2 -2 -2 -2 -1 -1 -1 -1 -1 -1 -1
-7 -7 -8 -8 -8 -8 -8 -8 -8 -8 -8 -8 -7 -7 -7 -6 -6 -6 -6 -6 -5 -5 -5 -4 -4 -4 -3 -3 -3 -3 -3 -3 -3 -2 -2 -2 -2 -2 -1 -1 -1 -1 -1
-8 -8 -8 -8 -8 -8 -8 -8 -8 -8 -8 -8 -8 -8 -7 -7 -7 -7 -7 -6 -6 -6 -5 -5 -4 -4 -4 -4 -4 -3 -3 -3 -3 -3 -3 -2 -2 -2 -2 -2 -2 -2 -2
-8 -8 -8 -8 -8 -8 -8 -8 -9 -9 -9 -9 -8 -8 -8 -7 -7 -7 -7 -7 -7 -6 -6 -5 -5 -5 -4 -4 -4 -4 -4 -3 -3 -3 -3 -3 -3 -3 -2 -2 -2 -2 -2
-9 -9 -9 -9 -9 -9 -9 -9 -9 -9 -9 -9 -9 -9 -8 -8 -8 -8 -8 -7 -7 -7 -6 -6 -6 -5 -5 -5 -4 -4 -4 -4 -4 -4 -4 -4 -4 -3 -3 -3 -3 -3 -2
-9 -9 -9 -9 -9 -9 -9 -9 -9 -10 -10 -10 -10 -10 -9 -9 -8 -8 -8 -8 -8 -7 -7 -7 -6 -6 -6 -5 -5 -5 -5 -5 -4 -4 -4 -4 -4 -4 -3 -3 -3 -3 -3
-10 -10 -10 -10 -10 -10 -10 -10 -10 -10 -10 -10 -10 -10 -10 -10 -9 -9 -9 -8 -8 -8 -7 -7 -7 -6 -6 -6 -5 -5 -5 -5 -5 -5 -5 -4 -4 -4 -4 -4 -4 -4 -3
-10 -10 -10 -10 -10 -10 -10 -10 -11 -10 -11 -11 -11 -11 -10 -10 -10 -9 -9 -9 -8 -8 -8 -7 -7 -7 -7 -6 -6 -6 -6 -6 -6 -5 -5 -5 -5 -5 -5 -4 -4 -4 -4
-11 -11 -11 -11 -11 -11 -11 -11 -11 -11 -11 -11 -11 -11 -11 -10 -10 -10 -9 -9 -9 -8 -8 -8 -8 -8 -7 -7 -7 -7 -6 -6 -6 -6 -6 -6 -6 -5 -5 -5 -5 -4 -4
-11 -12 -12 -12 -12 -12 -12 -11 -11 -11 -11 -11 -11 -11 -11 -11 -10 -10 -10 -9 -9 -9 -9 -9 -8 -8 -8 -8 -8 -8 -7 -7 -7 -6 -6 -6 -6 -6 -6 -5 -5 -5 -5
-12 -12 -12 -12 -12 -12 -12 -12 -12 -12 -12 -11 -11 -11 -11 -11 -10 -10 -10 -10 -9 -9 -9 -9 -9 -9 -9 -8 -8 -8 -8 -8 -7 -7 -7 -6 -6 -6 -6 -6 -6 -6 -6
-12 -12 -12 -13 -13 -13 -13 -13 -12 -12 -12 -12 -12 -11 -11 -11 -11 -10 -11 -11 -11 -10 -10 -10 -10 -10 -9 -9 -9 -8 -8 -8 -8 -7 -7 -7 -6 -6 -6 -6 -6 -6 -6
-13 -13 -13 -13 -13 -13 -13 -13 -13 -13 -13 -13 -12 -12 -12 -12 -11 -11 -11 -11 -11 -11 -11 -10 -10 -10 -10 -9 -9 -9 -9 -8 -8 -8 -7 -7 -7 -7 -7 -6 -6 -6 -6
-13 -13 -13 -13 -13 -13 -13 -13 -13 -13 -13 -13 -13 -12 -12 -12 -12 -12 -12 -11 -11 -11 -11 -11 -10 -10 -10 -10 -9 -9 -9 -9 -8 -8 -8 -8 -7 -7 -7 -7 -7 -6 -6
-14 -14 -14 -14 -14 -13 -14 -14 -14 -13 -13 -13 -13 -13 -13 -12 -12 -12 -12 -12 -12 -11 -11 -11 -11 -10 -10 -10 -10 -10 -9 -9 -9 -9 -8 -8 -8 -7 -7 -7 -7 -7 -7
-14 -14 -14 -14 -14 -14 -14 -14 -14 -14 -14 -14 -13 -13 -13 -13 -13 -12 -12 -12 -12 -11 -11 -11 -11 -10 -10 -10 -10 -10 -9 -9 -9 -9 -9 -8 -8 -8 -8 -7 -7 -7 -7
-14 -14 -14 -14 -14 -14 -14 -14 -14 -14 -14 -14 -14 -14 -13 -13 -13 -13 -13 -12 -12 -12 -11 -11 -11 -11 -11 -10 -10 -10 -10 -9 -9 -9 -9 -9 -9 -8 -8 -8 -8 -8 -8
-14 -14 -14 -14 -15 -15 -15 -14 -14 -14 -14 -14 -14 -14 -14 -14 -13 -13 -13 -13 -12 -12 -12 -11 -11 -11 -11 -11 -10 -10 -10 -10 -10 -9 -9 -9 -9 -9 -8 -8 -8 -8 -8
-15 -15 -15 -15 -15 -15 -15 -15 -15 -15 -15 -15 -14 -14 -14 -14 -13 -13 -13 -13 -13 -12 -12 -12 -11 -11 -11 -11 -11 -10 -10 -10 -10 -10 -9 -9 -9 -9 -9 -9 -8 -8 -8
Wind_Speed
4 5 5 5 5 6 5 6 7 7 8 8 8 8 8 8 7 6 6 7 7 7 7 7 8 6 6 5 5 5 5 5 7 7 4 4 4 5 5 6 7 7 7
5 5 5 6 5 6 6 7 7 8 8 9 9 8 8 8 7 8 8 8 8 8 8 8 8 7 7 6 6 6 6 6 6 8 6 4 5 5 5 5 5 6 6
5 5 6 6 6 7 7 7 7 8 8 9 8 8 9 8 8 8 8 9 9 8 8 8 8 8 9 7 7 7 6 6 5 6 7 5 4 4 4 4 4 4 5
5 5 6 7 7 7 7 7 7 7 7 8 8 9 9 9 9 9 9 9 9 9 9 9 9 9 9 9 8 8 7 7 6 6 6 5 5 4 4 4 4 4 4
6 6 7 7 7 6 7 7 7 7 8 8 8 9 9 8 8 9 9 10 9 9 9 9 9 10 12 10 9 8 8 7 6 6 6 5 5 4 5 4 5 3 3
6 7 7 7 7 7 7 7 7 8 8 8 8 9 9 9 13 15 12 9 9 9 9 9 9 10 11 13 14 13 11 10 9 8 7 8 8 6 5 5 4 4 5
6 7 7 7 7 7 8 8 8 8 8 8 9 9 9 11 15 15 15 10 9 8 9 8 8 8 10 8 10 12 12 14 14 11 10 10 9 8 7 7 7 6 6
6 7 7 8 8 8 7 8 8 8 8 8 9 9 9 11 15 15 15 10 8 8 8 8 9 8 8 9 8 9 10 10 11 10 10 10 9 8 9 8 7 5 4
7 8 8 8 9 8 8 8 8 8 8 8 8 9 9 11 15 15 15 8 7 8 8 8 8 8 11 12 10 9 9 9 11 13 14 13 13 13 10 6 5 5 6
8 9 8 9 9 8 9 8 7 7 8 9 9 8 9 10 14 15 15 7 7 8 8 8 10 10 12 12 9 8 9 8 7 8 8 9 9 10 12 9 8 7 5
9 9 9 9 9 8 7 7 7 8 8 8 9 9 8 11 13 14 15 8 7 8 7 6 7 11 12 12 10 8 10 8 7 6 6 6 5 6 7 7 7 8 7
8 9 9 9 8 7 7 7 7 7 7 8 8 9 7 8 11 12 15 14 12 8 7 6 7 11 11 11 9 9 10 8 5 5 5 5 5 5 5 6 6 6 6
8 9 9 9 8 8 7 7 7 6 6 7 7 8 8 7 9 14 14 15 14 9 7 9 10 11 10 8 9 10 8 5 5 5 6 5 5 5 4 4 3 3 3
8 9 8 8 8 7 6 6 6 5 6 7 7 8 8 8 7 7 7 8 11 9 7 8 9 9 7 7 7 6 5 4 5 5 5 4 4 4 4 4 4 3 3
8 8 8 8 8 7 6 5 6 6 7 8 7 7 8 8 10 13 10 7 7 7 6 4 4 4 4 4 4 4 3 4 4 4 4 4 4 4 4 3 3 3 3
8 8 7 7 7 7 7 8 10 10 13 14 13 12 10 12 16 15 14 14 13 11 7 4 4 4 4 4 4 4 4 4 4 4 4 4 4 4 4 3 3 3 4
7 8 7 7 7 7 7 7 8 10 12 13 13 14 13 14 15 14 14 13 11 9 5 4 4 5 5 5 4 4 5 4 4 4 4 4 4 4 3 3 3 3 3
7 9 8 6 7 7 7 7 7 8 9 8 11 14 14 14 15 14 12 9 6 6 4 5 5 5 5 5 5 5 5 4 4 4 4 4 4 4 4 4 4 4 3
7 6 6 6 6 7 7 7 7 8 8 8 8 10 13 13 13 12 10 5 5 5 5 5 5 5 5 5 5 5 5 5 4 4 4 4 3 3 4 4 4 5 4
6 10 9 7 7 7 7 7 7 7 7 7 8 8 8 8 7 7 6 5 5 5 5 5 5 6 6 6 5 5 4 4 4 4 4 3 3 3 3 4 4 4 4
6 8 11 8 7 7 7 7 7 7 7 7 8 10 13 7 6 6 6 6 5 5 6 6 6 6 6 5 5 4 5 4 4 4 3 3 3 2 3 3 3 3 4
6 6 6 6 7 7 7 6 6 7 8 8 8 10 14 8 6 6 6 6 6 6 6 6 6 5 5 5 5 4 5 5 4 3 3 3 3 2 2 2 3 3 3
6 6 7 6 7 9 9 6 6 7 7 7 8 8 8 7 7 7 7 6 6 6 6 6 6 6 6 5 5 5 5 5 5 4 3 3 3 2 2 2 3 3 4
5 6 6 6 6 6 7 7 7 7 7 7 7 7 7 7 7 8 7 7 7 7 7 6 6 8 9 7 6 6 6 6 5 4 4 3 3 3 2 3 3 4 4
5 6 6 6 6 6 7 7 7 7 7 8 7 7 7 7 7 7 7 7 7 7 8 8 7 7 9 9 8 7 8 9 7 4 3 3 3 3 3 3 3 3 3
5 6 6 6 6 6 7 7 7 7 7 7 7 7 7 7 7 7 7 7 7 7 8 8 8 9 10 9 9 9 9 8 7 6 3 3 3 3 3 3 3 3 3
Wind_Direction
307 307 307 306 305 303 297 298 301 301 305 305 306 306 304 299 295 289 285 288 277 274 269 258 254 253 249 249 247 247 252 256 263 275 276 278 264 267 262 250 249 247 247
297 303 303 303 300 301 297 298 301 300 302 302 302 300 300 297 289 284 283 286 274 270 270 265 262 257 250 247 244 245 247 251 256 269 277 272 261 256 249 242 249 245 238
297 301 302 301 298 298 296 295 299 300 301 302 302 298 298 295 288 283 278 277 269 264 263 262 262 257 252 248 245 244 247 254 255 256 267 272 270 261 260 259 247 243 240
301 301 299 297 293 291 292 295 297 299 298 299 300 298 297 293 287 282 279 278 271 266 261 259 257 250 251 249 246 242 242 245 250 250 260 265 267 260 241 240 250 245 246
301 300 297 295 291 291 294 296 297 297 298 298 299 300 299 295 288 285 283 281 273 272 268 263 258 255 256 256 253 240 234 238 243 249 257 262 258 249 240 238 243 245 251
298 298 300 300 295 293 296 297 298 297 297 298 297 297 298 299 302 298 293 286 280 276 276 272 265 262 261 263 262 256 246 238 235 242 249 250 248 244 244 243 243 241 255
300 302 304 304 300 294 297 300 298 297 297 297 297 297 295 298 304 303 299 296 282 278 275 273 275 270 269 258 263 261 256 253 247 241 241 244 245 237 231 237 237 240 247
303 304 305 305 302 298 294 294 293 295 294 294 297 296 295 299 305 305 305 300 286 282 278 274 270 267 261 258 255 254 250 250 248 242 238 240 242 234 229 234 239 252 267
307 306 304 301 299 297 293 291 291 293 293 294 295 295 296 299 304 305 304 296 289 286 284 280 270 265 267 266 258 255 255 256 261 255 250 249 246 243 234 226 225 229 249
304 302 303 301 295 289 288 288 289 290 290 296 297 295 293 295 300 304 304 294 292 291 288 281 276 274 273 271 259 251 251 253 254 258 256 253 245 239 236 226 218 222 238
308 308 308 304 297 285 283 286 289 291 292 293 295 296 293 294 300 303 304 300 292 291 290 286 280 282 278 275 272 260 258 259 251 250 252 250 248 238 231 225 218 219 227
315 312 310 308 306 303 292 292 292 292 295 295 297 298 297 297 300 302 303 304 302 292 289 286 283 285 283 278 276 268 266 265 253 246 247 246 246 244 239 229 225 227 234
317 313 312 313 312 311 303 301 300 295 293 296 296 298 303 304 301 303 304 307 307 302 294 291 291 290 288 283 281 281 275 262 248 246 245 247 243 242 238 230 224 223 238
314 313 315 316 314 312 309 305 302 299 299 301 301 302 302 304 302 301 301 303 306 304 299 296 295 292 290 288 284 284 276 259 250 249 249 251 250 239 233 229 229 219 232
312 313 316 316 312 312 309 301 300 291 295 299 298 298 301 302 304 306 305 303 304 299 304 302 303 298 295 291 288 284 284 276 265 257 250 250 250 247 244 231 232 230 229
315 318 317 316 315 313 312 312 311 309 309 309 309 306 304 307 313 314 315 316 316 317 316 307 301 296 291 292 289 288 285 279 274 266 254 245 244 242 245 240 226 216 213
309 312 313 316 317 316 315 316 317 319 319 318 319 318 317 317 320 321 322 322 324 327 318 304 296 293 289 285 283 281 279 278 273 267 257 247 242 239 234 226 218 210 210
310 310 314 311 312 312 312 312 312 313 318 319 321 323 323 322 323 325 328 330 328 330 317 306 301 297 292 286 281 281 282 285 280 269 261 247 233 229 228 221 212 205 205
312 311 308 308 309 309 310 311 311 311 312 313 317 322 325 324 325 327 332 329 317 314 312 306 302 298 295 293 288 282 279 278 281 275 267 254 237 229 227 219 213 210 204
308 311 316 313 312 313 314 313 313 312 314 316 319 322 324 324 325 326 329 323 314 306 303 301 299 296 294 290 290 291 289 286 284 278 274 266 253 239 230 220 210 201 198
303 308 315 316 311 311 311 311 311 312 313 315 315 318 322 324 321 318 318 316 310 305 302 300 297 295 291 289 289 290 291 290 285 278 277 275 264 253 244 226 211 200 193
301 303 307 309 310 311 309 309 312 313 314 314 315 319 325 327 320 315 314 313 311 305 299 298 295 294 291 286 285 286 286 286 287 284 280 276 267 252 240 220 204 197 186
305 307 309 308 308 310 315 314 313 312 312 312 313 316 320 320 318 315 313 312 312 308 304 299 298 298 297 297 287 275 274 275 273 267 268 268 267 257 231 210 202 197 193
308 308 308 309 310 310 311 312 311 311 312 312 312 312 312 312 312 313 313 311 310 307 306 304 299 298 298 299 298 292 285 286 284 266 255 250 254 253 232 212 207 205 196
317 315 312 310 309 309 309 309 310 311 311 310 310 310 311 311 310 310 310 310 309 308 309 309 305 303 301 300 297 294 295 300 298 284 256 243 243 240 228 219 209 201 196
315 312 310 307 306 307 307 308 309 311 310 309 309 308 308 308 307 307 308 308 310 311 310 309 308 306 303 301 298 297 301 302 299 294 268 232 227 227 219 212 200 193 187
Height
1513 1511 1509 1507 1505 1502 1500 1497 1495 1493 1490 1488 1486 1484 1482 1481 1480 1479 1478 1478 1478 1478 1478 1478 1478 1479 1479 1480 1480 1481 1481 1481 1478 1476 1477 1478 1479 1480 1480 1481 1482 1482 1483
1509 1507 1505 1502 1500 1498 1495 1493 1490 1488 1486 1483 1481 1479 1477 1475 1474 1473 1472 1472 1471 1471 1471 1472 1472 1472 1473 1473 1474 1474 1474 1475 1474 1472 1471 1472 1473 1474 1474 1475 1476 1477 1477
1505 1503 1500 1498 1495 1492 1490 1488 1485 1483 1480 1478 1476 1473 1471 1469 1468 1467 1466 1466 1465 1465 1465 1465 1465 1466 1466 1467 1467 1468 1468 1469 1468 1468 1466 1467 1467 1468 1469 1469 1470 1471 1472
1501 1499 1496 1493 1490 1487 1485 1482 1480 1478 1475 1472 1470 1468 1465 1463 1462 1461 1460 1459 1459 1458 1459 1459 1458 1459 1459 1460 1460 1461 1462 1462 1463 1462 1462 1461 1461 1462 1463 1463 1463 1464 1465
1497 1494 1491 1488 1485 1482 1480 1477 1475 1473 1470 1467 1465 1462 1460 1457 1456 1455 1454 1453 1452 1452 1452 1452 1452 1452 1452 1453 1454 1454 1456 1456 1456 1456 1456 1456 1456 1456 1457 1457 1458 1459 1460
1492 1489 1486 1483 1480 1478 1475 1472 1469 1467 1465 1462 1459 1457 1454 1452 1450 1449 1449 1447 1446 1445 1445 1445 1445 1445 1445 1446 1447 1448 1449 1449 1449 1450 1449 1449 1449 1450 1452 1452 1453 1453 1453
1488 1485 1482 1479 1476 1473 1470 1467 1464 1462 1459 1456 1454 1451 1448 1446 1444 1443 1442 1441 1440 1439 1438 1438 1437 1438 1439 1439 1439 1440 1441 1442 1443 1443 1443 1443 1443 1445 1446 1447 1447 1447 1447
1483 1480 1477 1474 1471 1468 1465 1462 1459 1457 1454 1451 1448 1446 1443 1441 1439 1437 1436 1435 1434 1433 1432 1431 1431 1430 1431 1432 1432 1432 1432 1433 1435 1436 1436 1436 1438 1439 1440 1441 1441 1442 1442
1478 1475 1472 1469 1466 1462 1459 1457 1454 1451 1448 1446 1443 1441 1438 1436 1435 1433 1431 1429 1428 1427 1426 1425 1425 1424 1425 1425 1426 1425 1425 1425 1427 1428 1429 1430 1431 1433 1434 1435 1435 1435 1435
1474 1471 1467 1464 1460 1457 1454 1452 1449 1446 1443 1441 1438 1436 1434 1432 1430 1428 1427 1425 1422 1421 1420 1419 1419 1418 1419 1419 1419 1419 1418 1418 1420 1421 1422 1422 1424 1425 1426 1427 1428 1429 1429
1470 1466 1462 1459 1455 1452 1450 1447 1444 1442 1439 1436 1433 1431 1429 1427 1425 1424 1422 1420 1418 1416 1414 1413 1413 1413 1412 1413 1413 1413 1412 1413 1413 1414 1414 1415 1416 1417 1418 1420 1421 1422 1423
1466 1462 1458 1454 1451 1448 1445 1442 1440 1437 1434 1431 1428 1426 1424 1423 1421 1419 1417 1416 1414 1412 1410 1409 1408 1407 1407 1407 1407 1407 1407 1408 1407 1407 1407 1408 1409 1410 1411 1412 1414 1415 1417
1461 1458 1454 1450 1447 1444 1441 1438 1435 1433 1430 1427 1424 1422 1419 1418 1416 1415 1413 1411 1409 1408 1406 1405 1404 1403 1402 1401 1401 1401 1401 1401 1401 1401 1401 1401 1402 1404 1405 1406 1407 1408 1410
1458 1454 1450 1447 1443 1440 1437 1434 1431 1428 1425 1423 1421 1418 1416 1413 1411 1410 1408 1406 1404 1403 1401 1400 1399 1398 1397 1396 1395 1395 1395 1396 1396 1396 1396 1396 1397 1398 1398 1399 1401 1402 1403
1454 1450 1447 1443 1439 1436 1433 1430 1427 1425 1423 1420 1418 1416 1413 1410 1408 1407 1405 1403 1400 1399 1397 1395 1394 1393 1392 1391 1390 1390 1390 1390 1391 1391 1391 1391 1391 1392 1392 1394 1395 1396 1397
1451 1447 1444 1440 1436 1433 1429 1426 1423 1422 1419 1417 1415 1413 1410 1408 1405 1403 1401 1399 1397 1395 1394 1392 1390 1389 1388 1387 1386 1386 1386 1386 1386 1386 1386 1385 1386 1386 1387 1388 1389 1391 1392
1448 1445 1441 1437 1434 1430 1426 1423 1419 1417 1415 1413 1411 1408 1406 1403 1401 1399 1396 1395 1393 1392 1390 1388 1387 1386 1385 1384 1383 1382 1382 1382 1381 1381 1381 1380 1381 1381 1382 1383 1384 1385 1386
1446 1442 1439 1435 1432 1428 1425 1421 1418 1414 1411 1408 1406 1404 1402 1399 1397 1395 1393 1391 1389 1388 1386 1385 1384 1383 1382 1381 1380 1379 1378 1377 1377 1377 1376 1376 1376 1376 1377 1377 1379 1380 1381
1443 1440 1436 1433 1430 1427 1423 1420 1417 1413 1410 1406 1403 1400 1399 1396 1394 1392 1390 1388 1386 1384 1383 1382 1381 1380 1378 1377 1376 1375 1374 1373 1373 1372 1372 1372 1372 1372 1372 1373 1374 1375 1377
1440 1438 1435 1431 1428 1424 1421 1418 1414 1411 1408 1405 1401 1398 1396 1393 1391 1389 1387 1386 1384 1382 1380 1379 1378 1376 1375 1374 1373 1371 1370 1369 1369 1368 1368 1368 1368 1368 1368 1368 1369 1371 1372
1438 1435 1432 1428 1425 1422 1419 1415 1413 1409 1406 1402 1399 1397 1395 1392 1390 1387 1385 1383 1382 1380 1378 1377 1375 1373 1372 1371 1369 1368 1367 1366 1365 1365 1364 1364 1364 1364 1364 1365 1366 1367 1368
1435 1432 1429 1426 1423 1420 1416 1414 1410 1407 1403 1400 1397 1395 1392 1390 1387 1385 1383 1381 1379 1378 1376 1374 1372 1371 1369 1368 1366 1365 1363 1362 1362 1361 1361 1361 1360 1360 1361 1361 1362 1363 1365
1432 1429 1426 1423 1420 1417 1414 1411 1408 1404 1401 1398 1395 1392 1390 1388 1385 1383 1380 1378 1377 1375 1373 1371 1369 1368 1366 1365 1363 1362 1361 1360 1359 1358 1358 1357 1357 1357 1358 1358 1359 1361 1362
1430 1427 1424 1420 1417 1414 1411 1408 1405 1402 1399 1396 1393 1391 1388 1385 1383 1380 1378 1376 1374 1372 1370 1368 1367 1365 1363 1362 1360 1359 1358 1357 1356 1355 1355 1354 1354 1354 1355 1356 1357 1358 1360
1427 1424 1421 1417 1414 1411 1408 1405 1402 1399 1397 1394 1391 1388 1385 1383 1380 1378 1376 1373 1371 1369 1367 1366 1364 1362 1360 1359 1357 1356 1355 1354 1353 1353 1352 1351 1351 1351 1352 1353 1354 1356 1357
1423 1420 1417 1414 1411 1408 1405 1402 1399 1397 1394 1391 1388 1386 1383 1380 1377 1375 1373 1370 1368 1366 1364 1362 1360 1359 1357 1356 1354 1353 1352 1351 1350 1350 1349 1349 1349 1349 1349 1350 1351 1353 1354